This is the latest recevied weather packets stored in our database for station/object K5KVN. If no packets are shown the sender has not sent any weather packets the latest 10 day(s).
| Time | Temp. | Humidity | Pressure | Rain* | Wind** | Luminosity | Snow |
|---|---|---|---|---|---|---|---|
| 1778003400 | 18.33° C | 92% | 1005.6 hPa | 0 mm | - | - | - |
| 1778002798 | 18.89° C | 92% | 1006.1 hPa | 0 mm | - | - | - |
| 1778002200 | 19.44° C | 92% | 1006.1 hPa | 0 mm | - | - | - |
| 1778001601 | 19.44° C | 92% | 1006 hPa | 0 mm | - | - | - |
| 1778001000 | 19.44° C | 91% | 1005.9 hPa | 0 mm | - | - | - |
| 1778000398 | 19.44° C | 91% | 1005.9 hPa | 0 mm | - | - | - |
| 1777999859 | 19.44° C | 91% | 1006 hPa | 0 mm | - | - | - |
| 1777999198 | 19.44° C | 90% | 1006 hPa | 0 mm | - | - | - |
| 1777998598 | 20° C | 90% | 1006 hPa | 0 mm | - | - | - |
| 1777998057 | 20° C | 89% | 1005.8 hPa | 0 mm | - | - | - |
| 1777997398 | 20° C | 90% | 1005.8 hPa | 0 mm | - | - | - |
| 1777996797 | 20° C | 90% | 1005.6 hPa | 0 mm | - | - | - |
| 1777996256 | 20° C | 88% | 1005.5 hPa | 0 mm | - | - | - |
| 1777995596 | 19.44° C | 89% | 1005.6 hPa | 0 mm | - | - | - |
| 1777994994 | 20° C | 90% | 1005.5 hPa | 0 mm | - | - | - |
| 1777994396 | 20° C | 91% | 1005.5 hPa | 0 mm | - | - | - |
| 1777993797 | 19.44° C | 90% | 1005.6 hPa | 0 mm | - | - | - |
| 1777993194 | 18.89° C | 91% | 1005.5 hPa | 0 mm | - | - | - |
| 1777992594 | 18.33° C | 92% | 1005.8 hPa | 0 mm | - | - | - |
| 1777992055 | 18.33° C | 93% | 1005.8 hPa | 0 mm | - | - | - |
| 1777991394 | 18.33° C | 93% | 1005.7 hPa | 0 mm | - | - | - |
| 1777989589 | 17.22° C | 94% | 1006.2 hPa | 0 mm | - | - | - |
| 1777988988 | 17.22° C | 95% | 1006.1 hPa | 0 mm | - | - | - |
| 1777988389 | 17.22° C | 95% | 1006.1 hPa | 0 mm | - | - | - |
| 1777987790 | 16.67° C | 95% | 1006.1 hPa | 0 mm | - | - | - |
* Rain latest hour (hover to see other rain measurements)
** Current wind speed in m/s (hover to see current wind gust speed)